AO-07 1 07530U 74089B 19233.78646701 -.00000029 00000-0 99385-4 0 9990 2 07530 101.7495 200.8043 0011762 222.6122 198.9585 12.53639356048319 UO-11 1 14781U 84021B 19233.92974800 .00000012 00000-0 76369-5 0 9992 2 14781 097.6083 255.6000 0009993 106.2547 253.9768 14.83101202887284 LO-19 1 20442U 90005G 19233.84014491 -.00000011 00000-0 12163-4 0 9995 2 20442 098.6513 175.7433 0011142 325.5559 034.4902 14.32930946545501 HUBBLE 1 20580U 90037B 19233.96515767 .00000361 00000-0 11013-4 0 9998 2 20580 028.4690 146.9226 0002896 098.0462 015.9832 15.09255769410529 MET-2/21 1 22782U 93055A 19233.81133843 -.00000024 00000-0 -34768-4 0 9992 2 22782 082.5480 112.1964 0022457 001.7489 068.9746 13.83820651311465 AO-27 1 22825U 93061C 19233.93914112 -.00000021 00000-0 97133-5 0 9998 2 22825 098.9074 224.0544 0008586 164.6669 195.4774 14.30064539350868 IO-26 1 22826U 93061D 19233.92584418 -.00000008 00000-0 14811-4 0 9996 2 22826 098.9013 224.0241 0009326 154.2009 205.9639 14.30398449351084 FO-29 1 24278U 96046B 19233.88240134 -.00000010 00000-0 23378-4 0 9995 2 24278 098.5466 018.6045 0351314 073.6442 290.3019 13.53092798136236 NOAA-15 1 25338U 98030A 19234.53396764 .00000008 00000-0 22023-4 0 9994 2 25338 98.7446 255.6759 0011381 58.4099 301.8190 14.25927575106498 GO-32 1 25397U 98043D 19234.41845893 -.00000012 00000-0 13778-4 0 9995 2 25397 98.6909 173.7875 0001162 153.6845 206.4393 14.23669214 97088 ISS 1 25544U 98067A 19234.54920131 -.00000461 00000-0 00000 0 0 9995 2 25544 51.6396 32.0521 0007041 318.8824 123.8707 15.50327246185558 NO-44 1 26931U 01043C 19233.96153271 -.00000029 00000-0 20713-4 0 9990 2 26931 067.0503 197.8316 0007474 273.9408 086.0838 14.30549851934092 SO-50 1 27607U 02058C 19233.39026792 -.00000060 00000-0 12539-4 0 9994 2 27607 64.5535 214.8447 0078724 244.2668 115.0294 14.75565588896438 CO-55 1 27844U 03031E 19233.95656308 .00000020 00000-0 28881-4 0 9995 2 27844 098.6845 241.2096 0009351 198.6327 161.4510 14.22190330837387 CO-57 1 27848U 03031J 19233.89663713 .00000010 00000-0 24433-4 0 9998 2 27848 098.6921 241.6642 0009020 211.0796 148.9849 14.21784071837239 RS-22 1 27939U 03042A 19233.89909761 .00000031 00000-0 14242-4 0 9997 2 27939 098.0503 008.4955 0012181 219.0261 141.0066 14.66797341849953 NOAA-18 1 28654U 05018A 19234.52439661 .00000038 00000-0 45653-4 0 9992 2 28654 99.0906 282.4481 0014124 359.7800 0.3363 14.12446310734660 CO-58 1 28895U 05043F 19233.90548821 .00000071 00000-0 22472-4 0 9998 2 28895 097.9681 014.4671 0017673 145.3651 214.8706 14.63683348736646 Falconsat-3 1 30776U 07006E 19233.76408872 .00001441 00000-0 41170-4 0 9993 2 30776 35.4357 41.7008 0003360 319.5166 40.5311 15.36374331690549 CO-65 1 32785U 08021C 19233.82427675 .00000101 00000-0 16455-4 0 9992 2 32785 097.5519 230.5209 0014394 054.4627 305.7931 14.88332504613155 AAUSAT2 1 32788U 08021F 19234.51695847 .00000638 00000-0 63622-4 0 9993 2 32788 97.4963 247.3784 0011348 351.0140 9.0876 14.94772583614601 DO-64 1 32789U 08021G 19233.69273163 .00000887 00000-0 63124-4 0 9998 2 32789 097.4594 281.4128 0010567 265.3739 094.6282 15.07055326616502 CO-66 1 32791U 08021J 19233.80177950 .00000129 00000-0 18468-4 0 9991 2 32791 097.5294 236.5358 0014178 030.7319 329.4727 14.90852473613586 RS-30 1 32953U 08025A 19234.43409370 .00000020 00000-0 75656-4 0 9991 2 32953 82.4999 104.5072 0019447 350.7895 9.2829 12.43090863510356 PRISM 1 33493U 09002B 19233.77693844 .00000015 00000-0 69468-5 0 9993 2 33493 098.1197 157.1615 0014804 335.8316 024.2208 14.96701406574722 NOAA-19 1 33591U 09005A 19234.50980151 .00000016 00000-0 33923-4 0 9994 2 33591 99.1835 227.2123 0013649 192.7271 167.3557 14.12372380543051 TISAT-1 1 36799U 10035E 19234.43826773 .00000330 00000-0 39428-4 0 9998 2 36799 98.1640 28.7685 0011251 229.3742 130.6497 14.91136864494414 JUGNU 1 37839U 11058B 19233.38023729 .00000306 00000-0 21381-4 0 9995 2 37839 019.9617 308.5658 0018843 309.7524 124.3223 14.12655974406162 SRMSAT 1 37841U 11058D 19232.75556755 .00000287 00000-0 12682-4 0 9990 2 37841 19.9734 10.4300 0011793 169.2587 330.3300 14.10636523405603 AO-71 1 37854U 11061E 19233.78521709 .00000114 00000-0 14296-4 0 9995 2 37854 101.6973 164.9663 0160277 235.4338 123.1662 15.06528604426642 HRBE 1 37855U 11061F 19233.73340946 .00000407 00000-0 28667-4 0 9995 2 37855 101.7100 162.2016 0173026 246.9410 111.3478 15.05540401426410 ALMASAT-1 1 38078U 12006B 19233.70952966 .00033021 43080-5 17567-3 0 9995 2 38078 69.4252 82.8211 0152081 163.5026 263.3502 15.66003316407506 HORYU-2 1 38340U 12025D 19233.78567113 .00000085 00000-0 20476-4 0 9990 2 38340 98.3245 274.2839 0010148 281.1486 78.8581 14.75738917390618 RS-40 1 38735U 12041C 19234.44405844 .00000001 00000-0 -64704-4 0 9993 2 38735 82.4759 187.7166 0018020 93.3914 266.9237 12.42578434320593 BEESAT-3 1 39135U 13015F 19233.27247928 .00000513 00000-0 35177-4 0 9996 2 39135 64.8687 193.6300 0029957 306.8786 52.9595 15.17549757349893 BEESAT-2 1 39136U 13015G 19233.33358921 .00000409 00000-0 30565-4 0 9990 2 39136 64.8675 197.4383 0022404 303.7729 56.1263 15.16965551349821 ZACUBE-1 1 39417U 13066B 19233.95240613 .00000103 00000-0 19300-4 0 9999 2 39417 097.5623 243.8431 0058875 181.7904 178.3108 14.81136611310550 TRITON-1 1 39427U 13066M 19233.94218870 .00000156 00000-0 33136-4 0 9990 2 39427 097.6820 207.3687 0112893 320.4347 038.8657 14.67866733307579 GOMX-1 1 39430U 13066Q 19234.55779461 .00000083 00000-0 23893-4 0 9998 2 39430 97.7518 186.8549 0152391 49.9995 311.4451 14.59271755306065 LO-74 1 39440U 13066AA 19233.95595944 .00000096 00000-0 20473-4 0 9999 2 39440 097.6050 228.6081 0078879 235.6445 123.7286 14.75874831308259 AO-73 1 39444U 13066AE 19233.57983702 .00000127 00000-0 21945-4 0 9994 2 39444 097.5601 245.4987 0058137 176.5576 183.6050 14.81959614308804 SPROUT 1 39770U 14029E 19233.87841676 .00000532 00000-0 64902-4 0 9992 2 39770 097.8880 336.7672 0007865 230.0398 130.0109 14.87393040284370 DUCHIFAT-1 1 40021U 14033M 19233.78393765 .00000132 00000-0 19326-4 0 9995 2 40021 97.9226 158.5892 0012299 192.4985 167.5930 14.90661715281094 NANOSATCBR1 1 40024U 14033Q 19233.77742555 .00000125 00000-0 18911-4 0 9993 2 40024 97.9117 155.8411 0011543 196.0196 164.0658 14.89871844280988 EO-79 1 40025U 14033R 19233.74414875 .00000127 00000-0 19526-4 0 9997 2 40025 097.9033 153.3214 0011711 202.8614 157.2082 14.88967466280348 DTUSAT-2 1 40030U 14033W 19233.75776339 .00000093 00000-0 16011-4 0 9998 2 40030 97.8948 151.3871 0011229 197.8348 162.2475 14.88557807280780 EO-80 1 40032U 14033Y 19233.76578194 .00000118 00000-0 18777-4 0 9999 2 40032 097.8955 151.3961 0011170 198.5464 161.5347 14.88501338280252 ANTELSAT 1 40034U 14033AA 19233.57922392 .00000103 00000-0 22871-4 0 9997 2 40034 097.7527 098.0164 0057244 250.0369 109.4669 14.74122867277558 VELOX-1 1 40057U 14034E 19233.93786656 .00000158 00000-0 29686-4 0 9995 2 40057 098.2433 358.4382 0011764 033.5099 326.6856 14.77692223277250 DAURIA DX 1 1 40071U 14037C 19234.53776353 .00000046 00000-0 13484-4 0 9999 2 40071 98.4343 31.7595 0009128 25.9563 334.2108 14.81283725276855 UKUBE-1 1 40074U 14037F 19234.42367054 .00000051 00000-0 13337-4 0 9997 2 40074 98.4438 40.0795 0005239 26.5538 333.5960 14.84080018277252 HODOYOSHI-1 1 40299U 14070B 19233.95619130 .00000255 00000-0 13620-4 0 9996 2 40299 097.3468 312.3721 0013064 168.7918 300.7842 15.23412976266059 CHUBUSAT-1 1 40300U 14070C 19233.76259815 .00000277 00000-0 15056-4 0 9997 2 40300 97.3244 306.3199 0019465 186.5021 292.2799 15.22135121265766 QSAT-EOS 1 40301U 14070D 19234.49312660 .00000942 00000-0 39056-4 0 9992 2 40301 97.3242 310.4067 0026177 166.2247 290.4585 15.26043450266174 FIREBIRD FU3 1 40377U 15003B 19234.44404086 .00000659 00000-0 30349-4 0 9992 2 40377 99.1174 227.9598 0125679 234.4893 124.4562 15.18953252251754 FIREBIRD FU4 1 40378U 15003C 19234.49677029 .00000660 00000-0 30329-4 0 9997 2 40378 99.1177 228.1034 0125890 234.1965 124.7512 15.18961745251763 GRIFEX 1 40379U 15003D 19234.49789233 .00000499 00000-0 25983-4 0 9999 2 40379 99.1174 221.7696 0133830 253.8847 104.7613 15.15606604251402 NO-84 1 40654U 15025D 19234.30647811 .00003663 00000 0 55117-4 0 7023 2 40654 54.9871 237.8362 0137405 131.4796 229.7946 15.47914053122459 NO-83 1 40655U 15025E 19234.24302827 .00043737 11409-4 17381-3 0 8614 2 40655 54.9635 107.1282 0043870 205.2629 154.6275 15.85940423123943 DEORBITSAIL 1 40719U 15032E 19233.82230354 .00000216 00000-0 38012-4 0 9994 2 40719 97.9005 124.3212 0017836 97.3649 262.9589 14.76773276221726 NUDT-PHONESAT 1 40900U 15049B 19233.83521583 .00001036 00000-0 47101-4 0 9992 2 40900 097.4371 242.5429 0011831 327.5189 097.2590 15.22942632217427 XW-2A 1 40903U 15049E 19234.55249508 .00000935 00000-0 23923-4 0 9992 2 40903 97.3321 277.6692 0011707 270.9543 219.9160 15.42002682220246 XW-2C 1 40906U 15049H 19233.83508448 .00000106 00000-0 90463-5 0 9990 2 40906 097.4689 234.8547 0014407 343.6544 092.5178 15.15719166216713 XW-2D 1 40907U 15049J 19233.93331351 .00000448 00000-0 26820-4 0 9993 2 40907 097.4666 234.6320 0013604 340.4868 077.1376 15.15912945216740 LILACSAT-2 1 40908U 15049K 19233.84837102 -.00000004 00000-0 34093-5 0 9990 2 40908 097.4808 233.3171 0015517 346.9899 132.2017 15.13828484216511 XW-2E 1 40909U 15049L 19233.91271505 .00000593 00000-0 32602-4 0 9993 2 40909 097.4598 237.5313 0012657 335.7786 072.2411 15.17856382216934 XW-2F 1 40910U 15049M 19233.84576771 .00000388 00000-0 22792-4 0 9991 2 40910 097.4631 236.6310 0013933 332.8049 147.5320 15.17368276216743 XW-2B 1 40911U 15049N 19233.84832385 .00000226 00000-0 15258-4 0 9998 2 40911 097.4684 235.2068 0013394 341.8039 138.0234 15.15840953216628 DCBB 1 40912U 15049P 19233.84517771 .00000473 00000-0 25354-4 0 9990 2 40912 097.4500 240.3686 0013554 313.1141 168.3746 15.19689575217050 TW-1C 1 40926U 15051B 19234.53362965 .00007146 00000-0 10127-3 0 9993 2 40926 97.1297 280.6484 0009847 125.8911 340.3721 15.56722152220241 TW-1A 1 40928U 15051D 19234.57376928 .00001739 00000-0 44029-4 0 9994 2 40928 97.1414 264.4384 0010730 188.0637 323.0046 15.41039987219160 IO-86 1 40931U 15052B 19233.65009413 .00000577 00000-0 -87778-5 0 9998 2 40931 6.0012 320.5861 0013043 342.1760 17.8049 14.76610178210730 LQSat 1 40958U 15057A 19234.43309927 -.00000033 00000-0 25272-5 0 9990 2 40958 97.8943 301.8664 0018957 37.4725 322.7800 14.73086277208337 AO-85 1 40967U 15058D 19234.36679880 .00000080 00000 0 27427-4 0 7879 2 40967 64.7787 321.9831 0192979 182.0413 177.9928 14.75979661117287 ATHENOXAT-1 1 41168U 15077C 19233.88996635 .00001316 00000-0 33784-4 0 9992 2 41168 014.9884 105.5621 0011701 266.4807 093.4175 15.13710834203725 ChubuSat-2 1 41338U 16012B 19232.96886041 .00000229 00000-0 11078-4 0 9992 2 41338 031.0034 102.6307 0013705 009.1223 350.9660 15.00167826192427 ChubuSat-3 1 41339U 16012C 19233.86238806 .00000202 00000-0 89644-5 0 9999 2 41339 31.0116 94.9646 0013462 25.4905 334.6398 15.00342220192550 Horyu-4 1 41340U 16012D 19232.93468160 .00000308 00000-0 16669-4 0 9999 2 41340 031.0052 091.6601 0013812 035.7122 324.4435 15.01291059192520 OUFTI-1 1 41458U 16025C 19233.77832147 .00000995 00000-0 54156-4 0 9991 2 41458 098.1019 323.8832 0167329 141.2467 220.0903 15.05932847182218 e-st@r-II 1 41459U 16025D 19234.47475047 .00001253 00000-0 67517-4 0 9995 2 41459 98.1013 324.2408 0168572 140.3994 220.9693 15.05559168182297 AAUSAT4 1 41460U 16025E 19233.77163212 .00001589 00000-0 82643-4 0 9996 2 41460 98.0972 324.9055 0158485 134.8696 226.5514 15.07493747182326 LO-87 1 41557U 16033B 19234.51482950 .00000722 00000-0 29698-4 0 9997 2 41557 97.4171 321.6395 0015395 71.6710 288.6202 15.27313808179987 NuSat2 1 41558U 16033C 19234.46851936 .00000714 00000-0 27806-4 0 9996 2 41558 97.4200 322.8503 0014444 72.2491 288.0324 15.29222982180033 Lapan A3 1 41603U 16040E 19234.57458133 .00000009 00000-0 35525-5 0 9994 2 41603 97.3547 291.6695 0013828 165.4759 325.6243 15.19732367175594 Swayam 1 41607U 16040J 19233.84194467 .00000800 00000-0 36466-4 0 9997 2 41607 097.3606 294.6813 0014043 159.0805 201.1009 15.23408414175642 Pratham 1 41783U 16059A 19233.68414029 .00000001 00000-0 93871-5 0 9990 2 41783 098.0623 291.8364 0033618 180.4844 179.6332 14.63004547154900 AlSat 1N 1 41789U 16059G 19233.89155835 .00000039 00000-0 16361-4 0 9995 2 41789 098.0652 294.1743 0028619 168.9051 191.2782 14.64256055155040 ScatSat 1 41790U 16059H 19234.47690469 .00000911 00000-0 24167-3 0 9990 2 41790 98.2046 277.9801 0007082 120.5566 239.6256 14.50919580153721 TY-1 1 41844U 16066D 19234.50264541 .00000440 00000-0 20873-4 0 9998 2 41844 97.4049 241.1088 0014192 326.4063 184.8322 15.24349563154562 Pegasus-1 1 41846U 16066F 19233.91287499 .00000075 00000-0 21269-4 0 9995 2 41846 098.7065 275.1157 0368222 047.6359 315.5390 14.37602148145782 CAS-2T 1 41847U 16066G 19233.69431592 -.00000013 00000-0 80409-5 0 9991 2 41847 98.7007 275.4223 0366623 44.6703 318.3406 14.38000073146194 EO-88 1 42017U 17008BX 19233.91098697 .00000779 00000-0 33456-4 0 9995 2 42017 097.3988 300.3327 0004828 314.1331 045.9509 15.25643908139712 nSIGHT1 1 42726U 98067MF 19233.90255179 .00015867 00000-0 11588-3 0 9990 2 42726 051.6362 339.7741 0004620 051.8785 308.2630 15.73435360127926 CAS-4B 1 42759U 17034B 19233.91481416 -.00000165 00000-0 34711-5 0 9998 2 42759 043.0160 238.0434 0012903 296.1666 139.0848 15.09612276120542 CAS-4A 1 42761U 17034D 19233.87319334 .00000056 00000-0 16929-4 0 9993 2 42761 43.0159 237.7682 0013286 296.1601 131.1275 15.09691440120534 UCLSat 1 42765U 17036A 19233.80284481 .00000604 00000-0 28735-4 0 9993 2 42765 97.3460 290.4276 0011695 13.3983 346.7562 15.22832700120224 NIUSat 1 42766U 17036B 19233.70790379 .00000484 00000-0 24720-4 0 9997 2 42766 97.3455 288.5986 0015568 2.5593 357.5720 15.21182091119960 LituanicaSAT 2 1 42768U 17036D 19233.71261828 .00001052 00000-0 47656-4 0 9997 2 42768 97.3497 289.9786 0014898 2.0940 358.0357 15.22948634120055 Aalto 1 1 42775U 17036L 19233.85653711 .00000382 00000-0 20046-4 0 9995 2 42775 097.3442 289.0793 0013923 002.6017 357.5289 15.21399247119966 URSA MAIOR 1 42776U 17036M 19233.94315505 .00000427 00000-0 21943-4 0 9999 2 42776 097.3451 289.3324 0013715 002.3857 357.7442 15.21537420119980 Max Valier Sat 1 42778U 17036P 19233.69385078 .00000473 00000-0 23654-4 0 9997 2 42778 097.3493 289.9349 0012412 008.1890 351.9547 15.22090256119978 Pegasus 1 42784U 17036V 19233.70639046 .00000595 00000-0 28563-4 0 9992 2 42784 97.3463 290.1334 0012283 13.8131 346.3439 15.22578619120005 NUDATSat 1 42787U 17036Y 19233.92586341 .00001127 00000-0 49941-4 0 9993 2 42787 097.3503 291.1346 0012879 007.6751 352.4680 15.23585296119922 SUCHAI 1 1 42788U 17036Z 19233.82720226 .00000689 00000-0 32223-4 0 9992 2 42788 97.3467 290.5943 0011803 12.8932 347.2604 15.23009272120119 SKCUBE 1 42789U 17036AA 19233.91299250 .00000649 00000-0 30588-4 0 9999 2 42789 097.3464 290.6082 0011665 012.7787 347.3743 15.22902792120040 VZLUSAT 1 1 42790U 17036AB 19233.91282728 .00000887 00000-0 39972-4 0 9993 2 42790 097.3480 291.1221 0011166 012.1827 347.9678 15.23577265120076 VENTA 1 1 42791U 17036AC 19233.29522336 .00000653 00000-0 30769-4 0 9993 2 42791 097.3463 290.0552 0011400 015.6288 344.5298 15.22911444119948 Robusta 1B 1 42792U 17036AD 19233.90248203 .00000697 00000-0 32472-4 0 9991 2 42792 097.3464 290.7619 0011269 013.8522 346.3022 15.23074217120064 D-SAT 1 42794U 17036AF 19233.89351530 -.00000038 00000-0 23587-5 0 9997 2 42794 097.5345 275.7539 0124998 287.8776 070.8844 14.91120956117904 TechnoSat 1 42829U 17042E 19234.50865894 .00000189 00000-0 24505-4 0 9991 2 42829 97.5555 124.6682 0013592 198.6189 161.4534 14.90989747114596 TOMSK-TPU 120 1 42910U 98067MZ 19233.49133505 .00061836 12580-4 20137-3 0 9994 2 42910 51.6339 315.2060 0004644 25.2383 73.9936 15.91031107115162 TANYUSHA 2 1 42912U 98067NB 19234.48039763 .00239374 37775-4 30173-3 0 9995 2 42912 51.6354 299.9550 0008919 12.0318 92.9051 16.06953877115459 TNS 0-2 1 42914U 98067ND 19234.47917736 .00067239 12903-4 20252-3 0 9993 2 42914 51.6316 310.1165 0005478 18.9101 341.2108 15.92447230115312 QIKCOM-1 1 42983U 98067NF 19233.93298114 .00002124 00000-0 33025-4 0 9997 2 42983 051.6408 017.6408 0004131 013.7687 346.3418 15.59158953103362 AO-91 1 43017U 17073E 19233.75284461 .00000294 00000-0 29031-4 0 9992 2 43017 097.7207 152.6045 0256954 310.0806 047.8126 14.78606779094726 EcAMSat 1 43019U 98067NG 19234.50290963 .00003745 00000-0 48415-4 0 9995 2 43019 51.6419 8.7455 0004506 356.5053 3.5909 15.61781067185851 PICSAT 1 43132U 18004X 19233.86831263 .00000698 00000-0 32092-4 0 9994 2 43132 097.4841 301.5502 0010620 038.0229 322.1755 15.23672161089272 AO-92 1 43137U 18004AC 19233.86487402 .00000532 00000-0 25242-4 0 9997 2 43137 097.4831 301.5120 0010254 039.9920 320.2070 15.23540980089275 TianYi 2 1 43155U 18008A 19234.50531539 .00000001 00000-0 38523-5 0 9992 2 43155 97.4832 305.6758 0019493 101.3247 358.5245 15.11196362 87610 Zhou Enlai 1 43156U 18008B 19234.50741848 .00000052 00000-0 69349-5 0 9995 2 43156 97.4878 305.5630 0016522 98.9140 1.1164 15.10704133 87589 TianYi 6 1 43158U 18008D 19233.77795329 .00000044 00000-0 65423-5 0 9998 2 43158 97.4830 304.2636 0015445 99.8303 15.8845 15.10290392 87434 S-Net G 1 43186U 18014G 19233.74153260 .00000035 00000-0 81067-5 0 9997 2 43186 97.7036 141.2513 0011783 145.7458 214.4526 14.96661580 84717 S-Net H 1 43187U 18014H 19233.74135430 .00000033 00000-0 79618-5 0 9994 2 43187 97.7035 141.2379 0011771 145.6793 214.5191 14.96661748 84710 S-Net J 1 43188U 18014J 19233.74116384 .00000028 00000-0 74939-5 0 9997 2 43188 097.7037 141.2566 0011764 145.7744 214.4238 14.96661378084710 S-Net K 1 43189U 18014K 19233.74150346 .00000030 00000-0 77021-5 0 9992 2 43189 097.7034 141.2352 0011756 145.6060 214.5925 14.96661105083263 FMN 1 1 43192U 18015A 19234.53048705 .00001087 00000-0 47096-4 0 9991 2 43192 97.4077 1.4898 0017851 68.1982 359.7523 15.24421222 86194 Shaonian Xing 1 43199U 18015H 19234.58392450 .00000795 00000-0 34718-4 0 9994 2 43199 97.3860 0.5314 0018815 78.6717 337.6126 15.24895962 86253 1KUNS-PF 1 43466U 98067NP 19233.62072428 .00015480 00000-0 14144-3 0 9997 2 43466 51.6376 9.4980 0000896 5.4950 354.6056 15.68047753 72946 UBAKUSAT 1 43467U 98067NQ 19234.42212237 .00008080 00000-0 89811-4 0 9993 2 43467 51.6380 11.1097 0002070 325.1292 34.9567 15.63904699 73007 Irazu 1 43468U 98067NR 19233.60620266 .00024160 00000-0 18708-3 0 9991 2 43468 051.6366 004.8589 0001098 356.5498 003.5492 15.71721661172994 EnduroSat One 1 43551U 98067NZ 19233.92210116 .00010929 00000-0 11776-3 0 9994 2 43551 051.6382 016.0211 0005528 030.3658 329.7656 15.64263333063127 EQUISat 1 43552U 98067PA 19233.70168114 .00008748 00000-0 10104-3 0 9991 2 43552 051.6395 019.0783 0005932 028.2275 331.9040 15.62776569063028 UiTMSat 1 1 43589U 98067PD 19233.63412595 .00010028 00000-0 11390-3 0 9990 2 43589 051.6370 020.0594 0005285 035.9598 324.1751 15.63016812058742 Maya 1 1 43590U 98067PE 19233.62846373 .00010106 00000-0 11465-3 0 9996 2 43590 051.6376 020.0276 0005317 037.4962 322.6403 15.63034897058677 Bhutan 1 1 43591U 98067PF 19233.68070662 .00010317 00000-0 11665-3 0 9999 2 43591 051.6381 019.6528 0005533 037.1173 323.0204 15.63094995058689 SiriusSat 1 1 43595U 98067PG 19233.63740423 .00009290 00000-0 10931-3 0 9990 2 43595 051.6372 021.5864 0003217 356.6373 003.4599 15.62206084057831 SiriusSat 2 1 43596U 98067PH 19234.44204014 .00008689 00000-0 10323-3 0 9998 2 43596 51.6382 18.0020 0003813 359.1417 0.9569 15.62052992 57956 Tanusha-3 1 43597U 98067PJ 19233.92276878 .00011721 00000-0 12762-3 0 9998 2 43597 051.6364 018.2116 0003363 011.3179 348.7891 15.63914549057909 SurfSat 1 43614U 18070B 19233.89746145 .00001511 00000-0 40789-4 0 9996 2 43614 093.0263 030.1541 0018296 062.8962 297.4155 15.37729691052275 CP-7 DAVE 1 43615U 18070C 19233.90670606 .00001372 00000-0 37164-4 0 9995 2 43615 093.0265 030.1577 0018422 062.4795 297.8328 15.37637777052277 ELFIN-B 1 43616U 18070D 19233.88712857 .00001814 00000-0 47951-4 0 9994 2 43616 093.0228 030.0589 0019222 065.3296 294.9957 15.38343350052285 ELFIN-A 1 43617U 18070E 19234.46452156 .00002339 00000-0 61697-4 0 9999 2 43617 93.0288 30.5627 0018323 61.0310 299.2777 15.38398000 52371 STARS-Me Mother 1 43640U 98067PQ 19234.42929439 .00005707 00000-0 77539-4 0 9992 2 43640 51.6380 22.4080 0005096 344.5767 15.5070 15.59265934 49824 CubeBel 1 1 43666U 18083E 19234.57788808 .00000410 00000-0 23745-4 0 9995 2 43666 97.5169 258.6068 0014197 329.0300 186.9626 15.17669020 45125 Changshagaoxin 1 43669U 18083H 19234.49942910 .00000388 00000-0 23139-4 0 9996 2 43669 97.5040 257.6392 0009835 323.1784 36.8773 15.16852577 45057 Ten-Koh 1 43677U 18084G 19233.88263114 .00000041 00000-0 10084-4 0 9991 2 43677 097.8573 347.2162 0017442 072.2801 288.0319 14.90184124044172 PO-101 1 43678U 18084H 19234.54427352 .00000022 00000-0 78619-5 0 9990 2 43678 97.8585 348.5346 0011357 87.9243 272.3295 14.91564365 44311 IRVINE 01 1 43693U 18088D 19233.93818696 .00001212 00000-0 51838-4 0 9993 2 43693 085.0335 275.6856 0016685 323.1595 036.8499 15.21559636043137 QO-100 1 43700U 18090A 19233.85341198 .00000142 00000-0 00000-0 0 9996 2 43700 000.0143 115.9616 0001673 057.5673 129.3690 01.00273127002693 Reaktor Hello World 1 43743U 18096AA 19234.52901595 .00000701 00000-0 29396-4 0 9991 2 43743 97.4559 304.4483 0019892 106.3475 1.8251 15.26707107 40628 MinXSS-2 1 43758U 18099A 19233.92233185 -.00000095 00000-0 -33116-5 0 9990 2 43758 097.7412 305.2061 0017031 111.7149 248.5887 14.95439988039039 AO-95 1 43770U 18099N 19233.76532298 .00000106 00000-0 15015-4 0 9991 2 43770 97.7416 304.8050 0016051 117.7142 242.5709 14.94795440 38998 RANGE-B 1 43772U 18099Q 19233.74961431 .00000640 00000-0 63853-4 0 9992 2 43772 097.7471 304.9948 0015832 106.8241 253.4718 14.94909366038987 RANGE-A 1 43773U 18099R 19233.75666188 .00000338 00000-0 36268-4 0 9999 2 43773 097.7363 304.6472 0015160 106.2948 253.9941 14.94824022038987 MOVE-II 1 43780U 18099Y 19233.71961543 -.00000069 00000-0 -10046-5 0 9996 2 43780 097.7406 304.8176 0015008 116.4237 243.8525 14.95098536038970 SNUSat 2 1 43782U 18099AA 19233.71485260 -.00000256 00000-0 -18103-4 0 9994 2 43782 097.7411 304.8569 0014275 106.2988 253.9803 14.95076128038984 SnugLite 1 43784U 18099AC 19233.76835662 -.00000007 00000-0 46332-5 0 9995 2 43784 097.7377 304.8242 0016622 113.4216 246.8754 14.95161274039004 ITASat 1 1 43786U 18099AE 19233.76626965 .00000052 00000-0 99492-5 0 9995 2 43786 097.7431 305.0064 0016740 112.4075 247.8921 14.95162740039001 EAGLET 1 1 43790U 18099AJ 19233.76712355 .00000003 00000-0 54958-5 0 9993 2 43790 097.7421 305.1283 0014880 116.5300 243.7448 14.95535362038707 ESEO 1 43792U 18099AL 19233.76510792 .00000021 00000-0 71052-5 0 9990 2 43792 97.7401 305.0691 0014759 113.6572 246.6199 14.95522015 38765 CSIM 1 43793U 18099AM 19233.74316333 .00000680 00000-0 66098-4 0 9998 2 43793 097.7366 304.9446 0014733 113.1662 247.1113 14.95737593038737 Astrocast 0.1 1 43798U 18099AS 19233.86083312 -.00000068 00000-0 -86463-6 0 9996 2 43798 097.7404 305.2677 0013907 098.8969 261.3827 14.95745571039013 JO-97 1 43803U 18099AX 19234.48143951 .00000596 00000-0 59257-4 0 9991 2 43803 97.7387 305.6150 0016791 111.3336 248.9679 14.95297807 39103 Suomi 100 1 43804U 18099AY 19233.67797639 .00000568 00000-0 56679-4 0 9994 2 43804 097.7386 304.8191 0016823 114.0166 246.2818 14.95295582038996 Al Farabi 2 1 43805U 18099AZ 19234.40689097 .00000524 00000-0 52615-4 0 9993 2 43805 97.7388 305.5599 0016855 112.0185 248.2828 14.95358667 39104 PWSat 2 1 43814U 18099BJ 19233.92211075 .00008190 00000-0 64645-3 0 9998 2 43814 097.7760 306.8246 0013993 122.3805 237.8802 15.00895488038484 CHOMPTT 1 43855U 18104G 19233.84944554 .00000465 00000-0 18175-4 0 9991 2 43855 085.0365 014.0131 0020381 079.3785 280.9749 15.22450840037782 ISAT 1 43879U 18111D 19234.47178168 .00000026 00000-0 74934-5 0 9994 2 43879 97.7123 141.5286 0013518 161.8343 198.3364 14.96015026 33636 UWE-4 1 43880U 18111E 19233.69742297 .00000662 00000-0 63687-4 0 9997 2 43880 97.7139 140.8837 0012657 163.4149 196.7488 14.96260195 33520 Sparrow 1 43881U 18111F 19233.82390777 .00000651 00000-0 62664-4 0 9997 2 43881 097.7141 141.0370 0012836 162.3582 197.8088 14.96305719035530 Lume 1 1 43908U 18111AJ 19233.67092975 .00000566 00000-0 25794-4 0 9997 2 43908 097.2840 137.1654 0023048 123.1134 237.2320 15.24412797036195 FO-98 1 43933U 19003B 19233.93396604 .00000435 00000-0 22172-4 0 9993 2 43933 097.2770 289.4119 0016733 214.7002 249.8677 15.21690880032824 FO-99 1 43937U 19003F 19234.52106510 .00000665 00000-0 30422-4 0 9990 2 43937 97.2720 290.4435 0023977 199.3471 268.1907 15.23666826 32951 Delphini 1 1 44030U 98067PW 19234.43105550 .00007189 00000-0 10255-3 0 9994 2 44030 51.6389 26.9276 0004686 32.3142 327.8137 15.57471021 31633 MYSat 1 1 44045U 18092F 19233.84674879 .00000929 00000-0 37961-4 0 9998 2 44045 51.6440 60.1675 0010784 318.3668 41.6592 15.35125712 29098 AstroCast 0.2 1 44083U 19018F 19233.80181612 .00000254 00000-0 14398-4 0 9993 2 44083 97.4636 293.2655 0015087 139.4121 220.8242 15.21420528 21665 AISTechSat 3 1 44103U 19018AB 19233.89643509 .00000390 00000-0 19763-4 0 9995 2 44103 097.4517 293.3810 0014279 155.7219 276.3100 15.22690578021698 AISat 1 1 44104U 19018AC 19233.80747541 .00000475 00000-0 18035-4 0 9993 2 44104 97.5045 295.9632 0058511 198.0005 161.9165 15.30531627 21818 Raavana-1 1 44329U 98067QE 19233.70715474 .00004634 00000-0 81491-4 0 9999 2 44329 051.6418 035.6045 0006866 324.2224 035.8306 15.52584630010204 Uguisu 1 44330U 98067QF 19233.70873656 .00004604 00000-0 81131-4 0 9996 2 44330 51.6418 35.6147 0006828 322.7451 37.3065 15.52545159 10181 NepaliSat-1 1 44331U 98067QG 19233.70568166 .00004621 00000-0 81197-4 0 9995 2 44331 51.6418 35.5949 0006879 325.2720 34.7820 15.52619213 10198 Prox-1 1 44339U 19036A 19233.20612631 .00000203 00000-0 -18372-5 0 9993 2 44339 024.0009 206.8390 0011202 098.5965 261.5793 14.52654382008276 OBJECT H 1 44346U 19036H 19233.22618014 .00009679 00000-0 15327-3 0 9994 2 44346 28.5269 191.1225 0389103 347.3252 11.7789 14.96602725 8537 OBJECT J 1 44347U 19036J 19233.25461302 .00032029 00000-0 51588-3 0 9998 2 44347 028.5340 190.4081 0380281 348.2943 010.9006 14.98572819008541 OBJECT K 1 44348U 19036K 19233.27374327 .00008830 00000-0 13725-3 0 9995 2 44348 028.5209 190.5122 0388556 347.9568 011.1951 14.97022872008545 NO-104 1 44354U 19036R 19233.24637534 .00009317 00000-0 14287-3 0 9996 2 44354 028.5317 190.3367 0386546 347.8776 011.2731 14.97763877008531 NO-103 1 44355U 19036S 19233.23981261 .00016303 00000-0 25412-3 0 9990 2 44355 028.5322 190.2879 0384191 347.9825 011.1812 14.98263267008533 Oculus-ASR 1 44356U 19036T 19233.25887501 .00035128 00000-0 51540-3 0 9992 2 44356 28.5283 189.4300 0381015 349.1353 10.1197 15.00427191 8549 CP9 1 44360U 19036X 19233.25695367 .00024115 00000-0 33788-3 0 9992 2 44360 028.5210 189.3404 0387839 349.5512 009.7200 14.99913508008424 Move-IIb 1 44398U 19038N 19233.82996477 .00000751 00000-0 47617-4 0 9991 2 44398 97.4928 194.8513 0027378 83.2001 277.2343 15.11624316 7152 SONATE 1 44400U 19038Q 19233.89484114 .00000324 00000-0 22698-4 0 9990 2 44400 097.4940 194.9173 0027099 081.4578 278.9721 15.11646842007169 JAISAT-1 1 44419U 19038F 19233.87520130 .00000378 00000-0 25464-4 0 9990 2 44419 097.4940 194.9431 0023600 086.8614 273.5317 15.12280221007168 LightSail-2 1 44420U 19036AC 19233.27725939 .00003739 00000-0 84136-3 0 9992 2 44420 024.0064 206.4280 0022153 095.0489 265.2561 14.52730459006432 /EX
